Powrót do katalogu

STARLINK-32663

AktywnyŁącznośćVLEO
NORAD 62197·PAYLOAD·🇺🇸 United States

Wystrzelony Dec 4, 2024 z Cape Canaveral Space Force Station

Loading…

Następne Przeloty (najbliższe 24 godziny)

TLE

ŚwieżeSource: CelesTrak SupGP

Epoka: Sep 14, 2026, 21:02 UTC

1 62197C 24229F   26257.87687500  .00001895  00000+0  68625-4 0  2577
2 62197  43.0003 282.6348 0001448 265.5485   0.1661 15.27574394    14

Śledź STARLINK-32663 w czasie rzeczywistym z AllMySat

Download on the App Store